| time (UTC) | temp F | wind direction | speed MPH | gust MPH | rain 1hr in | rain 24hr in | rain mn in | humidity % | barometer mb |
| 20260507040504 | 45 | 180 | 3.0 | 6.0 | 0.00 | 0.23 | 0.00 | 88 | 1008.0 |
| 20260507040008 | 45 | 155 | 3.0 | 5.0 | 0.00 | 0.23 | 0.00 | 87 | 1008.0 |
| 20260507035504 | 45 | 152 | 3.0 | 5.0 | 0.00 | 0.23 | 0.23 | 87 | 1008.0 |
| 20260507035004 | 45 | 165 | 3.0 | 5.0 | 0.00 | 0.23 | 0.23 | 87 | 1008.1 |
| 20260507034505 | 45 | 176 | 3.0 | 5.0 | 0.00 | 0.23 | 0.23 | 87 | 1008.0 |
| 20260507034004 | 45 | 150 | 3.0 | 6.0 | 0.00 | 0.23 | 0.23 | 87 | 1008.1 |
| 20260507033505 | 45 | 187 | 3.0 | 7.0 | 0.00 | 0.23 | 0.23 | 87 | 1008.1 |
| 20260507032005 | 45 | 178 | 3.0 | 5.0 | 0.00 | 0.23 | 0.23 | 87 | 1008.2 |
| 20260507031504 | 45 | 156 | 3.0 | 6.0 | 0.00 | 0.23 | 0.23 | 86 | 1008.3 |
| 20260507030007 | 45 | 172 | 4.0 | 5.0 | 0.00 | 0.23 | 0.23 | 86 | 1008.3 |
| 20260507025504 | 45 | 188 | 3.0 | 6.0 | 0.00 | 0.23 | 0.23 | 86 | 1008.2 |
| 20260507025005 | 45 | 182 | 4.0 | 7.0 | 0.00 | 0.23 | 0.23 | 85 | 1008.2 |
| 20260507024004 | 45 | 175 | 3.0 | 5.0 | 0.00 | 0.23 | 0.23 | 85 | 1008.2 |
| 20260507023504 | 45 | 215 | 3.0 | 5.0 | 0.00 | 0.23 | 0.23 | 85 | 1008.3 |
| 20260507023005 | 45 | 195 | 3.0 | 6.0 | 0.00 | 0.23 | 0.23 | 85 | 1008.3 |
| 20260507022004 | 45 | 183 | 3.0 | 6.0 | 0.00 | 0.23 | 0.23 | 85 | 1008.4 |
| 20260507021505 | 45 | 196 | 3.0 | 6.0 | 0.00 | 0.23 | 0.23 | 84 | 1008.5 |
| 20260507021004 | 46 | 229 | 4.0 | 7.0 | 0.00 | 0.23 | 0.23 | 84 | 1008.5 |
| 20260507020505 | 46 | 205 | 4.0 | 7.0 | 0.00 | 0.23 | 0.23 | 84 | 1008.5 |
| 20260507015504 | 46 | 194 | 4.0 | 8.0 | 0.00 | 0.23 | 0.23 | 84 | 1008.4 |
| 20260507015004 | 46 | 213 | 4.0 | 8.0 | 0.00 | 0.23 | 0.23 | 84 | 1008.5 |
| 20260507014505 | 46 | 232 | 5.0 | 9.0 | 0.00 | 0.23 | 0.23 | 84 | 1008.5 |
| 20260507014005 | 46 | 222 | 5.0 | 10.0 | 0.00 | 0.23 | 0.23 | 84 | 1008.7 |
| 20260507013504 | 46 | 221 | 5.0 | 10.0 | 0.00 | 0.23 | 0.23 | 84 | 1008.8 |
| 20260507013005 | 46 | 238 | 5.0 | 9.0 | 0.00 | 0.23 | 0.23 | 84 | 1008.8 |
| 20260507012505 | 46 | 266 | 4.0 | 7.0 | 0.00 | 0.23 | 0.23 | 84 | 1008.8 |
| 20260507012004 | 46 | 227 | 4.0 | 7.0 | 0.00 | 0.23 | 0.23 | 84 | 1008.8 |
| 20260507011504 | 46 | 276 | 3.0 | 8.0 | 0.00 | 0.23 | 0.23 | 84 | 1008.9 |
| 20260507011004 | 46 | 269 | 4.0 | 8.0 | 0.00 | 0.23 | 0.23 | 84 | 1008.9 |
| 20260507010504 | 46 | 263 | 5.0 | 8.0 | 0.00 | 0.23 | 0.23 | 83 | 1008.8 |
| 20260507010007 | 46 | 228 | 4.0 | 8.0 | 0.00 | 0.23 | 0.23 | 83 | 1008.7 |
| 20260507005504 | 46 | 215 | 3.0 | 8.0 | 0.00 | 0.23 | 0.23 | 83 | 1008.7 |
| 20260507005004 | 46 | 252 | 3.0 | 8.0 | 0.00 | 0.23 | 0.23 | 83 | 1008.5 |
| 20260507004004 | 47 | 215 | 3.0 | 6.0 | 0.00 | 0.23 | 0.23 | 82 | 1008.4 |
| 20260507003504 | 47 | 222 | 4.0 | 7.0 | 0.00 | 0.23 | 0.23 | 81 | 1008.4 |
| 20260507002504 | 47 | 198 | 3.0 | 6.0 | 0.00 | 0.23 | 0.23 | 81 | 1008.3 |
| 20260507001505 | 47 | 225 | 4.0 | 8.0 | 0.00 | 0.23 | 0.23 | 81 | 1008.1 |
| 20260507001004 | 47 | 222 | 4.0 | 9.0 | 0.00 | 0.23 | 0.23 | 81 | 1008.0 |
| 20260507000505 | 47 | 241 | 4.0 | 9.0 | 0.00 | 0.23 | 0.23 | 80 | 1008.0 |
| 20260507000008 | 47 | 225 | 3.0 | 7.0 | 0.00 | 0.23 | 0.23 | 80 | 1007.9 |
| 20260506235004 | 47 | 254 | 3.0 | 7.0 | 0.00 | 0.23 | 0.23 | 80 | 1007.8 |
| 20260506234504 | 47 | 221 | 3.0 | 7.0 | 0.00 | 0.23 | 0.23 | 81 | 1007.9 |
| 20260506234004 | 47 | 212 | 3.0 | 5.0 | 0.00 | 0.23 | 0.23 | 81 | 1007.8 |
| 20260506233504 | 47 | 175 | 3.0 | 7.0 | 0.00 | 0.23 | 0.23 | 80 | 1007.8 |
| 20260506233005 | 47 | 188 | 3.0 | 7.0 | 0.00 | 0.23 | 0.23 | 80 | 1007.9 |
| 20260506232505 | 47 | 203 | 3.0 | 7.0 | 0.00 | 0.23 | 0.23 | 80 | 1007.9 |
| 20260506232005 | 47 | 173 | 3.0 | 7.0 | 0.00 | 0.23 | 0.23 | 80 | 1007.9 |
| 20260506231004 | 48 | 226 | 4.0 | 6.0 | 0.00 | 0.23 | 0.23 | 79 | 1007.9 |
| 20260506230504 | 48 | 213 | 3.0 | 5.0 | 0.00 | 0.23 | 0.23 | 79 | 1007.7 |
| 20260506230007 | 48 | 221 | 3.0 | 6.0 | 0.00 | 0.23 | 0.23 | 79 | 1007.6 |
| 20260506225504 | 48 | 217 | 3.0 | 5.0 | 0.00 | 0.23 | 0.23 | 79 | 1007.7 |
| 20260506225005 | 48 | 233 | 3.0 | 5.0 | 0.00 | 0.23 | 0.23 | 79 | 1007.7 |
| 20260506224505 | 48 | 286 | 3.0 | 7.0 | 0.00 | 0.23 | 0.23 | 79 | 1007.6 |
| 20260506223504 | 48 | 235 | 3.0 | 7.0 | 0.00 | 0.23 | 0.23 | 79 | 1007.8 |
| 20260506223004 | 48 | 228 | 3.0 | 7.0 | 0.00 | 0.23 | 0.23 | 79 | 1007.9 |
| 20260506222004 | 48 | 241 | 3.0 | 6.0 | 0.00 | 0.23 | 0.23 | 78 | 1007.9 |
| 20260506221505 | 48 | 217 | 4.0 | 6.0 | 0.00 | 0.23 | 0.23 | 78 | 1007.9 |
| 20260506220504 | 48 | 235 | 3.0 | 8.0 | 0.00 | 0.23 | 0.23 | 77 | 1008.0 |
| 20260506215504 | 48 | 197 | 4.0 | 7.0 | 0.00 | 0.23 | 0.23 | 78 | 1008.0 |
| 20260506215005 | 48 | 232 | 5.0 | 9.0 | 0.00 | 0.23 | 0.23 | 78 | 1008.1 |
| 20260506214505 | 48 | 194 | 4.0 | 9.0 | 0.00 | 0.23 | 0.23 | 78 | 1008.0 |
| 20260506214004 | 48 | 179 | 3.0 | 5.0 | 0.00 | 0.23 | 0.23 | 79 | 1007.9 |
| 20260506212504 | 47 | 176 | 4.0 | 7.0 | 0.00 | 0.23 | 0.23 | 80 | 1007.9 |
| 20260506212004 | 47 | 215 | 3.0 | 7.0 | 0.00 | 0.23 | 0.23 | 81 | 1007.8 |
| 20260506211505 | 47 | 205 | 4.0 | 7.0 | 0.00 | 0.23 | 0.23 | 81 | 1007.8 |
| 20260506211004 | 47 | 234 | 4.0 | 7.0 | 0.00 | 0.23 | 0.23 | 81 | 1007.8 |
| 20260506205504 | 47 | 209 | 4.0 | 7.0 | 0.00 | 0.23 | 0.23 | 82 | 1007.9 |
| 20260506205004 | 47 | 268 | 4.0 | 7.0 | 0.00 | 0.23 | 0.23 | 82 | 1008.0 |
| 20260506204504 | 47 | 198 | 4.0 | 8.0 | 0.00 | 0.23 | 0.23 | 82 | 1008.1 |
| 20260506204004 | 47 | 225 | 4.0 | 7.0 | 0.00 | 0.23 | 0.23 | 82 | 1008.2 |
| 20260506203504 | 47 | 192 | 4.0 | 7.0 | 0.00 | 0.23 | 0.23 | 82 | 1008.2 |
| 20260506203005 | 47 | 202 | 4.0 | 6.0 | 0.00 | 0.23 | 0.23 | 82 | 1008.2 |
| 20260506202504 | 47 | 225 | 3.0 | 6.0 | 0.00 | 0.23 | 0.23 | 82 | 1008.1 |
| 20260506202004 | 47 | 222 | 3.0 | 6.0 | 0.00 | 0.23 | 0.23 | 82 | 1008.0 |
| 20260506201004 | 47 | 236 | 3.0 | 5.0 | 0.00 | 0.23 | 0.23 | 81 | 1008.3 |
| 20260506200504 | 47 | 205 | 3.0 | 7.0 | 0.00 | 0.23 | 0.23 | 82 | 1008.2 |
| 20260506200006 | 47 | 217 | 3.0 | 7.0 | 0.00 | 0.23 | 0.23 | 81 | 1008.2 |
| 20260506195504 | 47 | 231 | 4.0 | 7.0 | 0.00 | 0.23 | 0.23 | 82 | 1008.3 |
| 20260506195004 | 46 | 215 | 4.0 | 7.0 | 0.00 | 0.23 | 0.23 | 82 | 1008.4 |
| 20260506194505 | 46 | 218 | 4.0 | 8.0 | 0.00 | 0.23 | 0.23 | 82 | 1008.3 |
| 20260506194004 | 46 | 186 | 4.0 | 8.0 | 0.00 | 0.23 | 0.23 | 82 | 1008.5 |
| 20260506193505 | 46 | 198 | 4.0 | 6.0 | 0.00 | 0.23 | 0.23 | 82 | 1008.7 |
| 20260506193004 | 46 | 200 | 4.0 | 6.0 | 0.00 | 0.23 | 0.23 | 82 | 1008.7 |
| 20260506191504 | 46 | 205 | 4.0 | 7.0 | 0.00 | 0.23 | 0.23 | 81 | 1008.6 |
| 20260506191004 | 46 | 240 | 4.0 | 7.0 | 0.00 | 0.23 | 0.23 | 80 | 1008.8 |
| 20260506190504 | 46 | 221 | 3.0 | 6.0 | 0.00 | 0.23 | 0.23 | 80 | 1008.6 |
| 20260506190006 | 46 | 211 | 3.0 | 6.0 | 0.00 | 0.23 | 0.23 | 81 | 1008.8 |
| 20260506185503 | 46 | 205 | 3.0 | 6.0 | 0.00 | 0.23 | 0.23 | 81 | 1008.7 |
| 20260506184003 | 45 | 205 | 4.0 | 8.0 | 0.00 | 0.23 | 0.23 | 82 | 1008.8 |
| 20260506183005 | 45 | 232 | 4.0 | 7.0 | 0.00 | 0.23 | 0.23 | 83 | 1008.7 |
| 20260506182503 | 45 | 240 | 3.0 | 7.0 | 0.00 | 0.23 | 0.23 | 83 | 1008.7 |
| 20260506182003 | 46 | 203 | 4.0 | 6.0 | 0.00 | 0.23 | 0.23 | 83 | 1008.9 |
| 20260506181503 | 45 | 199 | 4.0 | 8.0 | 0.00 | 0.23 | 0.23 | 82 | 1008.7 |
| 20260506181003 | 45 | 182 | 4.0 | 8.0 | 0.00 | 0.23 | 0.23 | 83 | 1008.6 |
| 20260506180503 | 45 | 204 | 3.0 | 5.0 | 0.00 | 0.23 | 0.23 | 85 | 1008.6 |
| 20260506180006 | 45 | 225 | 4.0 | 9.0 | 0.00 | 0.23 | 0.23 | 85 | 1008.6 |
| 20260506175503 | 45 | 225 | 3.0 | 9.0 | 0.00 | 0.23 | 0.23 | 85 | 1008.8 |
| 20260506175003 | 45 | 234 | 3.0 | 9.0 | 0.00 | 0.23 | 0.23 | 86 | 1008.8 |
| 20260506174503 | 45 | 235 | 4.0 | 9.0 | 0.00 | 0.23 | 0.23 | 87 | 1008.9 |
| 20260506174003 | 45 | 254 | 4.0 | 9.0 | 0.00 | 0.23 | 0.23 | 88 | 1008.9 |
| 20260506173503 | 44 | 198 | 4.0 | 9.0 | 0.00 | 0.23 | 0.23 | 87 | 1008.9 |
| 20260506173004 | 45 | 222 | 4.0 | 9.0 | 0.00 | 0.23 | 0.23 | 88 | 1008.9 |
| 20260506172504 | 44 | 217 | 4.0 | 9.0 | 0.00 | 0.23 | 0.23 | 90 | 1009.0 |
| 20260506171503 | 44 | 215 | 5.0 | 8.0 | 0.00 | 0.23 | 0.23 | 90 | 1009.1 |
| 20260506171003 | 43 | 227 | 5.0 | 9.0 | 0.00 | 0.23 | 0.23 | 89 | 1009.3 |
| 20260506170503 | 44 | 230 | 4.0 | 9.0 | 0.00 | 0.23 | 0.23 | 89 | 1009.3 |
| 20260506170005 | 44 | 200 | 4.0 | 9.0 | 0.00 | 0.23 | 0.23 | 89 | 1009.2 |
| 20260506165503 | 43 | 180 | 4.0 | 9.0 | 0.00 | 0.23 | 0.23 | 89 | 1009.3 |
| 20260506165003 | 43 | 189 | 4.0 | 7.0 | 0.00 | 0.23 | 0.23 | 90 | 1009.3 |
| 20260506164503 | 43 | 197 | 4.0 | 7.0 | 0.00 | 0.23 | 0.23 | 90 | 1009.4 |
| 20260506164003 | 43 | 225 | 3.0 | 6.0 | 0.01 | 0.23 | 0.23 | 90 | 1009.4 |
| 20260506163503 | 43 | 183 | 4.0 | 7.0 | 0.01 | 0.23 | 0.23 | 90 | 1009.4 |
| 20260506163004 | 43 | 196 | 4.0 | 7.0 | 0.01 | 0.23 | 0.23 | 90 | 1009.3 |
| 20260506162504 | 43 | 164 | 4.0 | 7.0 | 0.01 | 0.23 | 0.23 | 91 | 1009.3 |
| 20260506162003 | 43 | 215 | 3.0 | 7.0 | 0.01 | 0.23 | 0.23 | 90 | 1009.4 |
| 20260506161503 | 43 | 184 | 3.0 | 8.0 | 0.01 | 0.23 | 0.23 | 91 | 1009.5 |
| 20260506160005 | 43 | 167 | 4.0 | 6.0 | 0.02 | 0.23 | 0.23 | 91 | 1009.7 |
| 20260506155505 | 43 | 223 | 4.0 | 6.0 | 0.02 | 0.23 | 0.23 | 91 | 1009.7 |
| 20260506155003 | 42 | 165 | 4.0 | 6.0 | 0.03 | 0.23 | 0.23 | 92 | 1009.9 |
| 20260506154503 | 42 | 231 | 4.0 | 8.0 | 0.03 | 0.23 | 0.23 | 91 | 1010.0 |
| 20260506154003 | 43 | 213 | 3.0 | 8.0 | 0.02 | 0.22 | 0.22 | 92 | 1009.9 |
| 20260506153503 | 42 | 258 | 4.0 | 7.0 | 0.02 | 0.22 | 0.22 | 91 | 1009.9 |
| 20260506153004 | 42 | 236 | 4.0 | 8.0 | 0.03 | 0.22 | 0.22 | 91 | 1009.9 |
| 20260506152503 | 42 | 188 | 4.0 | 8.0 | 0.03 | 0.22 | 0.22 | 91 | 1010.0 |
| 20260506152002 | 42 | 226 | 5.0 | 9.0 | 0.04 | 0.22 | 0.22 | 92 | 1009.9 |
| 20260506151504 | 42 | 198 | 6.0 | 9.0 | 0.04 | 0.22 | 0.22 | 92 | 1010.0 |
| 20260506151003 | 42 | 198 | 5.0 | 9.0 | 0.05 | 0.22 | 0.22 | 92 | 1010.0 |
| 20260506150503 | 42 | 217 | 5.0 | 9.0 | 0.04 | 0.21 | 0.21 | 92 | 1010.0 |
| 20260506150005 | 42 | 198 | 5.0 | 9.0 | 0.05 | 0.21 | 0.21 | 91 | 1009.9 |
| 20260506145003 | 43 | 202 | 4.0 | 8.0 | 0.05 | 0.20 | 0.20 | 92 | 1009.9 |
| 20260506144004 | 42 | 224 | 4.0 | 6.0 | 0.07 | 0.20 | 0.20 | 91 | 1009.8 |
| 20260506143503 | 42 | 218 | 4.0 | 6.0 | 0.08 | 0.20 | 0.20 | 91 | 1009.8 |
| 20260506143004 | 42 | 205 | 3.0 | 6.0 | 0.07 | 0.19 | 0.19 | 91 | 1009.7 |
| 20260506142003 | 42 | 250 | 5.0 | 8.0 | 0.07 | 0.18 | 0.18 | 91 | 1009.8 |
| 20260506141503 | 43 | 230 | 5.0 | 8.0 | 0.07 | 0.18 | 0.18 | 91 | 1009.8 |
| 20260506140504 | 42 | 197 | 4.0 | 8.0 | 0.07 | 0.17 | 0.17 | 91 | 1009.9 |
| 20260506140005 | 43 | 215 | 3.0 | 7.0 | 0.06 | 0.16 | 0.16 | 91 | 1009.7 |
| 20260506135503 | 43 | 261 | 3.0 | 5.0 | 0.07 | 0.16 | 0.16 | 91 | 1009.8 |
| 20260506135003 | 43 | 243 | 3.0 | 5.0 | 0.06 | 0.15 | 0.15 | 91 | 1009.8 |
| 20260506134504 | 43 | 230 | 3.0 | 6.0 | 0.05 | 0.14 | 0.14 | 91 | 1009.8 |
| 20260506133004 | 43 | 221 | 4.0 | 7.0 | 0.04 | 0.12 | 0.12 | 90 | 1009.6 |
| 20260506132503 | 43 | 217 | 3.0 | 7.0 | 0.03 | 0.11 | 0.11 | 90 | 1009.6 |
| 20260506132003 | 43 | 186 | 4.0 | 7.0 | 0.04 | 0.11 | 0.11 | 90 | 1009.5 |
| 20260506131504 | 43 | 217 | 4.0 | 9.0 | 0.04 | 0.11 | 0.11 | 90 | 1009.5 |
| 20260506131003 | 43 | 166 | 4.0 | 9.0 | 0.03 | 0.10 | 0.10 | 90 | 1009.6 |
| 20260506130005 | 43 | 229 | 4.0 | 8.0 | 0.03 | 0.10 | 0.10 | 90 | 1009.5 |
| 20260506125503 | 43 | 199 | 5.0 | 8.0 | 0.02 | 0.09 | 0.09 | 89 | 1009.5 |
| 20260506125003 | 43 | 207 | 5.0 | 9.0 | 0.02 | 0.09 | 0.09 | 88 | 1009.5 |
| 20260506123502 | 43 | 188 | 5.0 | 10.0 | 0.02 | 0.08 | 0.08 | 88 | 1009.4 |
| 20260506123006 | 43 | 140 | 5.0 | 9.0 | 0.02 | 0.08 | 0.08 | 87 | 1009.4 |
| 20260506122003 | 44 | 185 | 5.0 | 10.0 | 0.02 | 0.07 | 0.07 | 88 | 1009.4 |
| 20260506121003 | 44 | 174 | 5.0 | 8.0 | 0.02 | 0.07 | 0.07 | 89 | 1009.5 |
| 20260506120503 | 44 | 201 | 4.0 | 8.0 | 0.02 | 0.07 | 0.07 | 90 | 1009.6 |
| 20260506120005 | 44 | 200 | 4.0 | 8.0 | 0.03 | 0.07 | 0.07 | 90 | 1009.5 |
| 20260506115503 | 44 | 167 | 4.0 | 8.0 | 0.03 | 0.07 | 0.07 | 89 | 1009.6 |
| 20260506115003 | 44 | 218 | 4.0 | 8.0 | 0.03 | 0.07 | 0.07 | 89 | 1009.6 |
| 20260506114503 | 44 | 189 | 4.0 | 6.0 | 0.04 | 0.07 | 0.07 | 89 | 1009.7 |
| 20260506114002 | 44 | 205 | 3.0 | 6.0 | 0.03 | 0.06 | 0.06 | 88 | 1009.7 |
| 20260506113004 | 44 | 242 | 4.0 | 7.0 | 0.04 | 0.06 | 0.06 | 88 | 1009.8 |
| 20260506111503 | 44 | 240 | 4.0 | 8.0 | 0.04 | 0.05 | 0.05 | 88 | 1009.7 |
| 20260506111004 | 44 | 199 | 3.0 | 6.0 | 0.04 | 0.05 | 0.05 | 89 | 1009.7 |
| 20260506110503 | 44 | 200 | 3.0 | 7.0 | 0.04 | 0.05 | 0.05 | 89 | 1009.7 |
| 20260506105503 | 44 | 207 | 2.0 | 4.0 | 0.04 | 0.04 | 0.04 | 88 | 1009.6 |
| 20260506105002 | 44 | 235 | 2.0 | 4.0 | 0.04 | 0.04 | 0.04 | 88 | 1009.8 |
| 20260506104503 | 45 | 231 | 2.0 | 4.0 | 0.03 | 0.03 | 0.03 | 87 | 1009.7 |
| 20260506104003 | 45 | 215 | 3.0 | 5.0 | 0.03 | 0.03 | 0.03 | 87 | 1009.6 |
| 20260506103504 | 45 | 252 | 3.0 | 7.0 | 0.02 | 0.02 | 0.02 | 87 | 1009.5 |
| 20260506103004 | 45 | 262 | 3.0 | 7.0 | 0.02 | 0.02 | 0.02 | 86 | 1009.4 |
| 20260506102503 | 45 | 244 | 3.0 | 7.0 | 0.02 | 0.02 | 0.02 | 86 | 1009.3 |
| 20260506101503 | 46 | 213 | 4.0 | 11.0 | 0.01 | 0.01 | 0.01 | 86 | 1009.2 |
| 20260506101003 | 46 | 258 | 5.0 | 11.0 | 0.01 | 0.01 | 0.01 | 87 | 1009.3 |
| 20260506100502 | 46 | 211 | 5.0 | 11.0 | 0.01 | 0.01 | 0.01 | 87 | 1009.3 |
| 20260506100006 | 46 | 211 | 5.0 | 10.0 | 0.01 | 0.01 | 0.01 | 87 | 1009.2 |
| 20260506095503 | 46 | 200 | 5.0 | 9.0 | 0.00 | 0.00 | 0.00 | 86 | 1009.3 |
| 20260506095002 | 47 | 221 | 5.0 | 9.0 | 0.00 | 0.00 | 0.00 | 87 | 1009.2 |
| 20260506094503 | 47 | 206 | 5.0 | 10.0 | 0.00 | 0.00 | 0.00 | 87 | 1009.3 |
| 20260506094003 | 47 | 198 | 5.0 | 10.0 | 0.00 | 0.00 | 0.00 | 86 | 1009.3 |
| 20260506093003 | 47 | 223 | 6.0 | 11.0 | 0.00 | 0.00 | 0.00 | 85 | 1009.2 |
| 20260506092504 | 47 | 216 | 6.0 | 12.0 | 0.00 | 0.00 | 0.00 | 85 | 1009.2 |
| 20260506091503 | 47 | 235 | 7.0 | 11.0 | 0.00 | 0.00 | 0.00 | 84 | 1009.0 |
| 20260506091003 | 47 | 211 | 8.0 | 11.0 | 0.00 | 0.00 | 0.00 | 84 | 1009.0 |
| 20260506090502 | 48 | 254 | 7.0 | 12.0 | 0.00 | 0.00 | 0.00 | 84 | 1009.1 |
| 20260506090004 | 48 | 222 | 6.0 | 12.0 | 0.00 | 0.00 | 0.00 | 84 | 1008.9 |
| 20260506085501 | 48 | 202 | 5.0 | 9.0 | 0.00 | 0.00 | 0.00 | 84 | 1008.6 |
| 20260506085001 | 48 | 228 | 6.0 | 10.0 | 0.00 | 0.00 | 0.00 | 84 | 1008.8 |
| 20260506084502 | 48 | 200 | 5.0 | 10.0 | 0.00 | 0.00 | 0.00 | 84 | 1008.6 |
| 20260506084001 | 48 | 209 | 5.0 | 9.0 | 0.00 | 0.00 | 0.00 | 84 | 1008.6 |
| 20260506083501 | 48 | 242 | 6.0 | 10.0 | 0.00 | 0.00 | 0.00 | 84 | 1008.8 |
| 20260506083003 | 48 | 238 | 7.0 | 12.0 | 0.00 | 0.00 | 0.00 | 84 | 1008.9 |
| 20260506082501 | 48 | 236 | 7.0 | 12.0 | 0.00 | 0.00 | 0.00 | 84 | 1008.9 |
| 20260506082001 | 48 | 250 | 6.0 | 11.0 | 0.00 | 0.00 | 0.00 | 84 | 1009.0 |
| 20260506081502 | 48 | 236 | 6.0 | 12.0 | 0.00 | 0.00 | 0.00 | 84 | 1009.0 |
| 20260506081001 | 48 | 229 | 6.0 | 13.0 | 0.00 | 0.00 | 0.00 | 84 | 1008.9 |
| 20260506073501 | 48 | 252 | 6.0 | 15.0 | 0.00 | 0.00 | 0.00 | 83 | 1008.8 |
| 20260506073002 | 48 | 199 | 7.0 | 14.0 | 0.00 | 0.00 | 0.00 | 83 | 1008.8 |
| 20260506072502 | 49 | 206 | 7.0 | 14.0 | 0.00 | 0.00 | 0.00 | 83 | 1008.8 |
| 20260506071503 | 49 | 209 | 7.0 | 19.0 | 0.00 | 0.00 | 0.00 | 83 | 1008.5 |
| 20260506070502 | 49 | 232 | 8.0 | 11.0 | 0.00 | 0.00 | 0.00 | 83 | 1008.5 |
| 20260506062501 | 49 | 207 | 7.0 | 16.0 | 0.00 | 0.00 | 0.00 | 84 | 1008.3 |
| 20260506062002 | 49 | 207 | 7.0 | 17.0 | 0.00 | 0.00 | 0.00 | 84 | 1008.4 |
| 20260506061502 | 49 | 244 | 8.0 | 17.0 | 0.00 | 0.00 | 0.00 | 84 | 1008.3 |
| 20260506061002 | 50 | 234 | 8.0 | 14.0 | 0.00 | 0.00 | 0.00 | 84 | 1008.2 |
| 20260506060502 | 50 | 220 | 8.0 | 15.0 | 0.00 | 0.00 | 0.00 | 84 | 1008.1 |
| 20260506051003 | 51 | 200 | 8.0 | 16.0 | 0.00 | 0.00 | 0.00 | 84 | 1008.0 |
| 20260506050501 | 51 | 238 | 8.0 | 16.0 | 0.00 | 0.00 | 0.00 | 84 | 1008.0 |
| 20260506045004 | 51 | 223 | 7.0 | 15.0 | 0.00 | 0.00 | 0.00 | 83 | 1007.8 |
| 20260506044504 | 51 | 220 | 8.0 | 15.0 | 0.00 | 0.00 | 0.00 | 83 | 1007.7 |
| 20260506043504 | 51 | 248 | 9.0 | 16.0 | 0.00 | 0.00 | 0.00 | 83 | 1007.6 |
| 20260506043005 | 51 | 233 | 8.0 | 15.0 | 0.00 | 0.00 | 0.00 | 83 | 1007.6 |
| 20260506042504 | 51 | 219 | 8.0 | 13.0 | 0.00 | 0.00 | 0.00 | 82 | 1007.5 |
| 20260506042004 | 51 | 241 | 8.0 | 15.0 | 0.00 | 0.00 | 0.00 | 82 | 1007.5 |
| 20260506041504 | 52 | 238 | 9.0 | 14.0 | 0.00 | 0.00 | 0.00 | 82 | 1007.4 |
| 20260506041004 | 52 | 273 | 8.0 | 13.0 | 0.00 | 0.00 | 0.00 | 82 | 1007.3 |